Flag for U.S.A. Weather past 2 weeks in Salt Lake City, Utah, U.S.A.

27 °F

Partly cloudy.

Feels Like: 17 °F
Forecast: 24 / 30 °F
Wind: 10 mph from Southeast

Location: Salt Lake City International Airport

Current Time: Nov 28, 2015 at 1:26:22 AM

Latest Report: Nov 28, 2015 at 12:53 AM

Visibility: 10 mi

Pressure: 30.14 "Hg (25.54 "Hg at 1312m altitude)

Humidity: 46%

Dew point: 9 °F

Location of Salt Lake CityLocation

Historic Weather in Salt Lake City — Graph


Salt Lake City temperature yesterday

Maximum temperature yesterday: 34 °F (at 1:53 PM)
Minimum temperature yesterday: 21 °F (at 7:53 AM)
Average temperature yesterday: 28 °F

Past Weeks' High & Low Weather Summary

High59 °F (Nov 15, 1:53 PM)89% (Nov 26, 5:53 AM)30.53 "Hg (Nov 26, 5:53 AM)
Low21 °F (Nov 27, 7:53 AM)18% (Nov 15, 2:53 PM)29.46 "Hg (Nov 25, 11:53 AM)
Average38 °F57%30.06 "Hg
* Reported Nov 12 11:53 PM — Nov 27 11:53 PM, Salt Lake City, Weather by CustomWeather, © 2015

Note: Actual official high and low records may vary slightly from our data, if they occured in-between our weather recording intervals... More about our weather records


Salt Lake City weather history for previous 24 hours

Time TempWeatherWind HumidityBarometerVisibility
11:53 PM
Fri, Nov 27
25 °FPassing clouds.8 mph53%30.15 "Hg10 mi
10:53 PM26 °FPartly cloudy.6 mph50%30.13 "Hg10 mi
9:53 PM28 °FPassing clouds.18 mph45%30.16 "Hg10 mi
8:53 PM27 °FPassing clouds.13 mph49%30.16 "Hg10 mi
7:53 PM28 °FPartly cloudy.5 mph49%30.15 "Hg10 mi
6:53 PM29 °FPassing clouds.10 mph43%30.15 "Hg10 mi
5:53 PM28 °FPassing clouds.9 mph45%30.16 "Hg10 mi
4:53 PM30 °FBroken clouds.9 mph47%30.14 "Hg10 mi
3:53 PM32 °FBroken clouds.10 mph38%30.13 "Hg10 mi
2:53 PM34 °FScattered clouds.8 mph35%30.13 "Hg10 mi
1:53 PM34 °FScattered clouds.3 mph34%30.13 "Hg10 mi
12:53 PM33 °FScattered clouds.13 mph35%30.15 "Hg10 mi
11:53 AM32 °FScattered clouds.12 mph35%30.17 "Hg10 mi
10:53 AM31 °FBroken clouds.7 mph36%30.21 "Hg10 mi
9:53 AM27 °FPassing clouds.3 mph42%30.22 "Hg10 mi
8:53 AM25 °FPassing clouds.8 mph44%30.23 "Hg10 mi
7:53 AM21 °FPassing clouds.3 mph57%30.24 "Hg10 mi
6:53 AM24 °FPassing clouds.10 mph44%30.22 "Hg10 mi
5:53 AM24 °FPassing clouds.7 mph44%30.22 "Hg10 mi
4:53 AM25 °FPassing clouds.6 mph42%30.21 "Hg10 mi
3:53 AM25 °FPassing clouds.16 mph44%30.19 "Hg10 mi
2:53 AM26 °FPassing clouds.14 mph42%30.19 "Hg10 mi
1:53 AM27 °FPassing clouds.16 mph42%30.17 "Hg10 mi
Weather by CustomWeather, © 2015

See weather overviewHow to use our weather pages